Total_Precipitation_Accumulation
0.19 0.25 0.21 0.19 0.25 0.35 0.19 0.29 0.61 0.26 0.31 0.25 0.54 0.55 0.30 0.22 0.20 0.45 0.29 1.04 0.72 0.22 0.35 0.39 0.84 1.51 0.74 0.18 0.32 1.54 2.34 2.63 3.00 2.91 2.32 2.05 1.50 1.41 0.95 0.99 1.08 1.76 2.00 1.74
0.12 0.28 0.07 0.06 0.11 0.16 0.10 0.17 0.18 0.25 0.17 0.31 0.34 0.28 0.22 0.16 0.39 0.36 0.36 0.37 0.40 0.19 0.28 0.49 1.86 1.47 0.85 0.50 0.70 1.09 1.17 1.41 1.63 1.82 2.06 2.72 1.54 1.63 1.29 1.76 1.82 1.84 2.13 3.40
0.62 0.23 0.07 0.08 0.10 0.11 0.10 0.17 0.14 0.16 0.33 0.69 1.28 0.81 0.37 0.37 0.43 0.78 0.23 0.23 0.27 0.23 0.24 0.35 1.05 1.69 0.43 0.64 1.08 1.00 1.66 1.50 1.20 1.34 1.66 1.81 1.32 1.13 1.43 1.92 1.56 1.60 2.50 3.00
0.11 0.09 0.12 0.16 0.23 0.17 0.14 0.16 0.05 0.06 0.18 0.34 0.71 1.14 1.51 0.34 0.30 0.70 0.52 0.66 0.30 0.24 0.50 0.36 0.52 0.45 0.50 0.58 1.22 1.68 1.93 1.41 1.27 1.21 1.44 1.00 1.09 0.86 1.16 1.63 1.70 1.86 1.89 1.83
0.48 0.11 0.15 0.17 0.10 0.16 0.10 0.06 0.02 0.02 0.10 0.15 0.21 0.21 0.72 0.58 0.49 0.46 0.23 0.40 0.44 0.29 0.24 0.26 0.34 0.57 0.65 0.65 1.21 2.11 2.80 1.13 0.95 0.96 0.63 0.82 1.13 1.32 1.51 2.01 2.21 2.61 3.26 2.65
0.04 0.03 0.04 0.05 0.05 0.03 0.05 0.06 0.09 0.09 0.16 0.22 0.14 0.22 0.28 0.43 0.45 0.27 0.15 0.26 0.45 0.71 0.90 0.53 0.37 0.47 0.75 0.94 0.91 2.59 3.57 2.08 1.37 1.55 1.31 1.76 2.37 2.44 2.56 3.19 3.26 3.41 3.73 3.93
0.04 0.03 0.06 0.04 0.04 0.07 0.10 0.10 0.08 0.11 0.14 0.16 0.22 0.20 0.12 0.17 0.12 0.32 0.56 0.32 0.43 0.77 0.51 0.64 0.54 0.49 0.62 0.70 1.07 1.94 3.25 2.93 2.25 2.38 2.19 2.27 2.60 3.13 3.54 4.34 4.00 3.77 3.79 4.07
0.07 0.06 0.06 0.06 0.08 0.09 0.05 0.05 0.01 0.01 0.01 0.05 0.16 0.17 0.08 0.19 0.18 0.28 0.48 0.78 1.42 1.02 0.48 0.46 0.29 0.46 0.49 1.18 1.71 1.89 2.19 2.03 1.73 1.87 2.83 3.60 4.73 4.66 4.38 4.83 5.38 5.21 5.20 4.82
0.03 0.02 0.05 0.03 0.03 0.04 0.00 0.00 0.00 0.00 0.00 0.01 0.07 0.08 0.17 0.18 0.27 0.53 0.72 0.75 0.75 0.96 0.55 0.69 0.76 0.88 1.13 1.09 1.27 1.95 2.75 2.78 2.37 2.59 3.27 3.94 5.27 5.42 5.78 6.02 5.96 5.46 4.72 3.49
0.06 0.02 0.00 0.00 0.00 0.00 0.00 0.00 0.00 0.00 0.00 0.03 0.06 0.12 0.10 0.21 0.18 0.72 0.90 1.03 1.23 1.12 1.16 1.21 1.25 1.64 1.61 1.41 1.67 2.32 2.68 3.05 3.54 4.07 4.81 4.88 5.85 6.71 6.93 6.26 5.31 4.46 3.39 2.48
0.00 0.00 0.00 0.00 0.00 0.00 0.00 0.00 0.00 0.00 0.00 0.02 0.03 0.10 0.09 0.22 0.21 0.52 0.47 1.31 2.40 2.63 2.02 1.78 1.47 2.09 3.52 2.82 3.27 3.45 4.43 5.82 6.72 7.71 7.39 7.35 6.56 6.04 4.09 3.00 2.19 1.92 1.89 1.80
0.00 0.00 0.00 0.00 0.00 0.00 0.00 0.00 0.00 0.00 0.00 0.00 0.02 0.19 0.31 0.45 0.56 0.48 0.96 2.19 2.27 1.79 2.21 2.95 3.32 3.78 4.53 5.16 4.93 4.87 5.89 6.80 6.93 6.53 6.23 4.31 3.16 3.45 3.24 2.97 2.67 2.33 1.93 1.70
0.00 0.00 0.00 0.00 0.00 0.02 0.02 0.03 0.03 0.00 0.00 0.02 0.07 0.34 0.41 0.50 0.79 1.84 1.64 1.50 1.84 1.91 1.74 2.28 3.12 2.64 2.72 2.93 3.39 4.36 4.04 3.62 4.06 5.14 4.02 3.57 4.05 3.74 2.87 2.52 2.94 2.77 2.26 1.60
0.00 0.00 0.00 0.00 0.01 0.01 0.01 0.00 0.00 0.01 0.01 0.01 0.03 0.20 0.32 0.31 0.46 1.40 0.96 1.42 2.01 2.11 1.23 1.26 1.41 2.08 2.35 2.12 2.45 3.74 3.68 3.13 2.96 3.02 2.97 2.91 3.52 2.96 2.51 2.24 1.87 1.99 1.72 1.37
0.00 0.00 0.00 0.00 0.01 0.00 0.00 0.00 0.00 0.01 0.01 0.02 0.01 0.05 0.38 1.61 1.49 1.42 1.32 2.00 2.15 1.95 1.67 1.34 1.01 1.32 1.57 2.16 2.05 2.21 2.61 2.11 2.12 2.31 3.19 3.33 3.97 3.49 2.97 2.94 2.90 2.58 2.13 1.47
0.00 0.00 0.00 0.00 0.01 0.01 0.01 0.02 0.01 0.00 0.01 0.02 0.00 0.19 0.71 1.11 0.83 1.10 1.62 1.32 1.45 1.15 2.11 1.96 1.54 1.54 1.74 1.98 1.76 1.53 1.56 2.34 2.95 2.81 2.96 3.39 3.89 4.61 5.09 4.85 4.72 4.06 3.35 2.77
0.02 0.01 0.00 0.00 0.00 0.02 0.04 0.03 0.06 0.03 0.08 0.06 0.09 0.24 0.85 1.23 1.17 0.82 0.90 0.95 1.20 1.28 1.84 2.85 2.47 2.02 2.02 2.26 1.94 1.47 1.53 1.63 1.83 2.34 4.04 4.34 4.35 4.19 4.66 4.63 4.00 3.80 3.79 3.98
0.05 0.09 0.04 0.01 0.02 0.04 0.11 0.14 0.09 0.11 0.19 0.34 0.49 0.58 1.33 1.96 1.44 1.35 1.89 1.20 1.22 1.49 1.72 2.32 3.78 3.31 3.17 3.13 2.69 2.16 1.96 1.94 1.52 1.87 2.62 3.04 3.48 3.73 3.78 3.52 2.93 2.67 2.80 2.92
0.02 0.02 0.04 0.02 0.09 0.20 0.28 0.33 0.44 0.45 0.73 1.03 1.43 1.48 1.91 1.99 2.11 2.23 2.67 2.86 2.01 2.14 1.55 2.25 3.64 3.85 3.24 3.15 3.32 3.48 3.38 2.66 2.37 2.61 3.24 3.06 2.83 3.06 2.92 3.01 3.06 2.73 2.68 2.41
0.04 0.05 0.15 0.14 0.08 0.36 0.88 0.56 0.60 0.59 1.46 2.43 2.36 1.65 1.56 2.86 3.56 3.46 2.98 2.35 2.29 2.44 3.51 2.31 2.18 2.57 3.14 3.32 3.25 4.18 5.20 4.66 3.77 3.94 4.24 4.31 4.24 4.07 4.32 4.10 3.61 3.20 2.96 3.47
0.11 0.22 0.40 0.32 0.20 0.46 0.54 0.62 0.62 1.32 1.56 1.81 2.27 3.10 2.28 2.18 2.77 1.72 1.82 1.25 1.16 1.57 2.35 2.46 1.88 2.04 2.43 2.86 3.47 3.47 4.02 4.12 4.08 4.63 4.37 4.57 4.49 5.59 6.18 5.22 4.13 4.16 4.44 4.78
0.44 0.45 0.48 0.50 0.57 0.99 0.46 0.49 1.05 1.41 1.02 1.46 1.96 1.97 2.47 2.10 1.88 1.78 1.70 1.88 1.78 2.00 2.01 1.93 1.80 1.61 1.61 2.05 3.09 3.88 4.15 4.39 3.91 3.90 3.96 4.31 4.03 4.65 5.93 6.68 6.16 6.30 6.85 7.74
0.79 0.70 1.09 0.92 1.10 0.86 0.70 1.06 1.06 1.34 1.10 0.97 1.42 2.12 2.71 2.09 1.57 2.10 2.12 2.29 2.27 1.88 1.98 1.85 1.97 1.46 1.20 1.41 1.83 1.88 2.42 3.15 4.12 4.14 4.09 4.18 4.69 4.21 3.83 4.78 4.86 4.48 4.69 4.80
0.84 0.76 0.69 1.29 1.16 1.01 0.89 1.03 1.93 3.02 2.34 1.61 1.56 1.82 2.33 2.68 2.87 2.83 3.74 3.23 2.73 2.19 1.75 1.38 1.64 1.59 1.33 1.12 1.16 1.28 1.45 1.70 1.99 2.36 2.97 3.25 3.52 3.09 2.83 2.94 3.09 3.07 2.88 2.57
1.25 1.22 0.69 0.81 1.32 1.30 1.79 2.39 2.37 2.81 3.23 3.17 2.82 2.69 2.36 3.27 3.52 3.59 3.39 3.17 2.57 2.19 2.11 2.07 2.33 2.31 1.61 1.23 1.12 1.02 1.10 1.04 0.97 1.20 1.45 1.52 1.65 1.85 1.82 2.42 2.91 2.75 2.73 3.38
1.41 1.28 1.23 1.62 1.95 2.27 2.60 2.58 2.08 1.98 1.69 1.46 1.49 1.83 2.00 2.03 2.11 2.62 3.40 2.82 2.48 2.08 2.21 2.27 1.99 1.98 1.89 1.82 1.64 1.63 1.72 1.62 1.45 1.46 1.59 1.39 1.30 1.59 1.83 2.49 2.88 2.79 2.43 2.70